Tracking 27079 objects as of 23-Mar-2023
HD Live streaming from Space Station
objects crossing your sky now

BRO-2

Track BRO-2 now!
10-day predictions


NORAD ID: 46940
Int'l Code: 2020-085M
Perigee: 474.5 km
Apogee: 489.3 km
Inclination: 97.5 °
Period: 94.1 minutes
Semi major axis: 6852 km
RCS: Unknown
Launch date: November 20, 2020
Source: France (FR)
Launch site: Rocket Lab Launch Complex (RLLC)
Your satellite tracking list
Your tracking list is empty




NASA's NSSDC Master Catalog

Two Line Element Set (TLE):
1 46940U 20085M   23082.20591758  .00022006  00000-0  74951-3 0  9999
2 46940  97.4799 223.7851 0010823 180.8370 302.0630 15.30357179129859
Source of the keplerian elements: AFSPC